This is the latest recevied weather packets stored in our database for station/object HS1AXC-1. If no packets are shown the sender has not sent any weather packets the latest 10 day(s).
| Time | Temp. | Humidity | Pressure | Rain* | Wind** | Luminosity | Snow |
|---|---|---|---|---|---|---|---|
| 1777812234 | 35.56° C | 64% | 1008 hPa | - | - | 0 W/m² | - |
| 1777811612 | 35.56° C | 65% | 1008 hPa | - | - | 0 W/m² | - |
| 1777810990 | 35.56° C | 64% | 1008 hPa | - | - | 0 W/m² | - |
| 1777810368 | 35.56° C | 63% | 1007 hPa | - | - | 0 W/m² | - |
| 1777809746 | 36.11° C | 61% | 1007 hPa | - | - | 0 W/m² | - |
| 1777809124 | 35.56° C | 61% | 1007 hPa | - | - | 0 W/m² | - |
| 1777808502 | 36.67° C | 58% | 1007 hPa | - | - | 0 W/m² | - |
| 1777807880 | 36.11° C | 58% | 1007 hPa | - | - | 0 W/m² | - |
| 1777807258 | 36.67° C | 59% | 1007 hPa | - | - | 0 W/m² | - |
| 1777806636 | 36.11° C | 59% | 1006 hPa | - | - | 0 W/m² | - |
| 1777806014 | 37.22° C | 58% | 1006 hPa | - | - | 0 W/m² | - |
| 1777805392 | 37.22° C | 58% | 1006 hPa | - | - | 0 W/m² | - |
| 1777804770 | 37.22° C | 58% | 1006 hPa | - | - | 0 W/m² | - |
| 1777804148 | 36.67° C | 58% | 1006 hPa | - | - | 0 W/m² | - |
| 1777803747 | 36.67° C | 59% | 1005 hPa | - | - | 0 W/m² | - |
| 1777803125 | 37.22° C | 58% | 1005 hPa | - | - | 0 W/m² | - |
| 1777802503 | 36.11° C | 60% | 1005 hPa | - | - | 0 W/m² | - |
| 1777801881 | 37.22° C | 59% | 1005 hPa | - | - | 0 W/m² | - |
| 1777801258 | 36.67° C | 61% | 1005 hPa | - | - | 1 W/m² | - |
| 1777800637 | 36.67° C | 62% | 1005 hPa | - | - | 1 W/m² | - |
| 1777800014 | 36.11° C | 67% | 1005 hPa | - | - | 1 W/m² | - |
| 1777799392 | 35.56° C | 65% | 1005 hPa | - | - | 1 W/m² | - |
| 1777798770 | 35.56° C | 67% | 1005 hPa | - | - | 1 W/m² | - |
| 1777798148 | 35.56° C | 72% | 1006 hPa | - | - | 1 W/m² | - |
| 1777797526 | 35° C | 72% | 1006 hPa | - | - | 1 W/m² | - |
* Rain since midnight (hover to see other rain measurements)
** Current wind speed in m/s (hover to see current wind gust speed)